HB1872 LSZR-LSZR

Flight info

Callsign HB1872
Flight time 0h 14m
Altitude 6000
Route LSZR
Aircraft DG1T/L-V/N

Departure

Time 2026-05-05 14:02
Airport Sankt Gallen Altenrhein Airport (LSZR)

Arrival

Time 2026-05-05 14:16
Airport Sankt Gallen Altenrhein Airport (LSZR)
Time Latitude Longitude Altitude Speed Heading
2026-05-05 13:55 47.48424 9.56833 1308 ft 0 kts 278°
2026-05-05 13:57 47.48424 9.56835 1308 ft 6 kts 278°
2026-05-05 13:58 47.48424 9.56834 1308 ft 0 kts 278°
2026-05-05 13:58 47.48427 9.56800 1308 ft 14 kts 279°
2026-05-05 13:58 47.48457 9.56504 1308 ft 45 kts 274°
2026-05-05 14:00 47.48424 9.56835 1308 ft 0 kts 278°
2026-05-05 14:02 47.48454 9.56549 1502 ft 73 kts 280°
2026-05-05 14:02 47.48512 9.55863 2631 ft 72 kts 279°
2026-05-05 14:02 47.48559 9.55275 3309 ft 40 kts 268°
2026-05-05 14:02 47.48285 9.55209 3391 ft 60 kts 148°
2026-05-05 14:03 47.48181 9.55814 3531 ft 61 kts 100°
2026-05-05 14:03 47.48106 9.56377 3684 ft 53 kts 107°
2026-05-05 14:03 47.47926 9.56921 3770 ft 64 kts 127°
2026-05-05 14:03 47.47682 9.57497 3888 ft 65 kts 128°
2026-05-05 14:04 47.47429 9.58040 3950 ft 63 kts 132°
2026-05-05 14:04 47.47196 9.58544 3975 ft 61 kts 128°
2026-05-05 14:04 47.46948 9.59069 3974 ft 63 kts 132°
2026-05-05 14:04 47.46690 9.59572 4005 ft 57 kts 138°
2026-05-05 14:05 47.46451 9.60008 4015 ft 55 kts 141°
2026-05-05 14:05 47.46228 9.60435 4018 ft 51 kts 128°
2026-05-05 14:05 47.46018 9.60937 3984 ft 60 kts 129°
2026-05-05 14:05 47.45805 9.61457 3987 ft 57 kts 131°
2026-05-05 14:06 47.45581 9.61917 3982 ft 53 kts 135°
2026-05-05 14:06 47.45266 9.62227 3950 ft 56 kts 149°
2026-05-05 14:06 47.44909 9.62504 3885 ft 62 kts 183°
2026-05-05 14:06 47.44555 9.62612 3855 ft 53 kts 174°
2026-05-05 14:07 47.44290 9.63102 3789 ft 59 kts 122°
2026-05-05 14:07 47.44103 9.63653 3730 ft 63 kts 111°
2026-05-05 14:07 47.43926 9.64229 3723 ft 59 kts 113°
2026-05-05 14:07 47.43768 9.64820 3679 ft 65 kts 112°
2026-05-05 14:08 47.43592 9.65417 3637 ft 65 kts 140°
2026-05-05 14:08 47.43187 9.65647 3570 ft 60 kts 191°
2026-05-05 14:08 47.42783 9.65630 3523 ft 58 kts 198°
2026-05-05 14:08 47.42404 9.65499 3520 ft 54 kts 208°
2026-05-05 14:09 47.42053 9.65342 3544 ft 48 kts 212°
2026-05-05 14:09 47.41751 9.65136 3539 ft 49 kts 218°
2026-05-05 14:09 47.41479 9.64880 3563 ft 46 kts 248°
2026-05-05 14:09 47.41328 9.64503 3593 ft 43 kts 254°
2026-05-05 14:10 47.41166 9.64103 3540 ft 51 kts 234°
2026-05-05 14:10 47.40899 9.63769 3573 ft 47 kts 241°
2026-05-05 14:10 47.40702 9.63340 3551 ft 56 kts 245°
2026-05-05 14:10 47.40482 9.62851 3540 ft 58 kts 242°
2026-05-05 14:11 47.40250 9.62368 3532 ft 58 kts 239°
2026-05-05 14:11 47.39936 9.61997 3466 ft 72 kts 188°
2026-05-05 14:11 47.39766 9.62546 3445 ft 67 kts 62°
2026-05-05 14:11 47.40074 9.63048 3438 ft 63 kts 37°
2026-05-05 14:12 47.40422 9.63452 3399 ft 66 kts 24°
2026-05-05 14:12 47.40821 9.63790 3419 ft 63 kts 18°
2026-05-05 14:12 47.41199 9.64055 3433 ft 60 kts 14°
2026-05-05 14:12 47.41609 9.64275 3390 ft 65 kts
2026-05-05 14:13 47.42004 9.64438 3434 ft 57 kts
2026-05-05 14:13 47.42392 9.64610 3475 ft 35 kts 19°
2026-05-05 14:13 47.42226 9.64329 3272 ft 56 kts 208°
2026-05-05 14:13 47.41856 9.64083 3251 ft 60 kts 210°
2026-05-05 14:14 47.41476 9.64382 3201 ft 78 kts 111°
2026-05-05 14:14 47.41712 9.64967 3196 ft 68 kts
2026-05-05 14:14 47.42150 9.64937 3208 ft 59 kts 351°
2026-05-05 14:14 47.42525 9.64845 3202 ft 53 kts 335°
2026-05-05 14:15 47.42851 9.64684 3184 ft 50 kts 330°
2026-05-05 14:15 47.43163 9.64493 3167 ft 48 kts 331°
2026-05-05 14:15 47.43509 9.64284 3067 ft 59 kts 334°
2026-05-05 14:15 47.43889 9.64089 3009 ft 55 kts 330°
2026-05-05 14:16 47.44204 9.63880 2914 ft 47 kts 330°
2026-05-05 14:16 47.44471 9.63659 2799 ft 38 kts 319°
2026-05-05 14:16 47.44587 9.63484 2225 ft 58 kts 96°
2026-05-05 14:16 47.44807 9.64149 2345 ft 59 kts 22°
2026-05-05 14:17 47.45185 9.64178 2317 ft 54 kts 334°
2026-05-05 14:17 47.45468 9.63905 2338 ft 42 kts 326°
2026-05-05 14:17 47.45696 9.63661 2329 ft 37 kts 312°
2026-05-05 14:17 47.45836 9.63317 2238 ft 44 kts 313°
2026-05-05 14:18 47.45795 9.62942 1978 ft 19 kts 90°
2026-05-05 14:18 47.46012 9.63273 1915 ft 36 kts 36°
2026-05-05 14:18 47.46051 9.63399 1315 ft 0 kts 183°